TimeEET,TemperatureF,Dew PointF,Humidity,Sea Level PressureIn,VisibilityMPH,Wind Direction,Wind SpeedMPH,Gust SpeedMPH,PrecipitationIn,Events,Conditions,WindDirDegrees,DateUTC
12:20 AM,32.0,26.6,80,30.12,-9999.0,Calm,Calm,-,N/A,,Clear,0,2013-11-15 22:20:00
12:50 AM,28.4,24.8,86,30.12,-9999.0,NE,1.2,-,N/A,,Clear,40,2013-11-15 22:50:00
1:20 AM,30.2,26.6,86,30.12,-9999.0,Calm,Calm,-,N/A,,Clear,0,2013-11-15 23:20:00
1:50 AM,28.4,26.6,93,30.12,-9999.0,North,1.2,-,N/A,,Clear,10,2013-11-15 23:50:00
2:00 AM,28,26,89,,12,North,1.2,,,,,10,2013-11-16 00:00:00
2:20 AM,30.2,26.6,86,30.12,-9999.0,North,2.3,-,N/A,,Clear,10,2013-11-16 00:20:00
2:50 AM,28.4,26.6,93,30.12,-9999.0,NE,1.2,-,N/A,,Clear,40,2013-11-16 00:50:00
3:20 AM,26.6,24.8,93,30.12,-9999.0,Calm,Calm,-,N/A,,Clear,0,2013-11-16 01:20:00
3:50 AM,28.4,26.6,93,30.15,-9999.0,Calm,Calm,-,N/A,,Clear,0,2013-11-16 01:50:00
4:20 AM,28.4,26.6,93,30.15,-9999.0,Calm,Calm,-,N/A,,Clear,0,2013-11-16 02:20:00
4:50 AM,26.6,24.8,93,30.15,-9999.0,Calm,Calm,-,N/A,,Clear,0,2013-11-16 02:50:00
5:00 AM,27,26,93,,12,Calm,Calm,,,,,,2013-11-16 03:00:00
5:20 AM,24.8,23.0,93,30.15,-9999.0,Calm,Calm,-,N/A,,Clear,0,2013-11-16 03:20:00
5:50 AM,26.6,24.8,93,30.15,5.0,Calm,Calm,-,N/A,,Unknown,0,2013-11-16 03:50:00
6:07 AM,26.6,24.8,93,30.15,2.5,Calm,Calm,-,N/A,,Mist,0,2013-11-16 04:07:00
6:20 AM,24.8,23.0,93,30.15,2.8,Calm,Calm,-,N/A,,Mist,0,2013-11-16 04:20:00
6:50 AM,24.8,23.0,93,30.15,2.8,Calm,Calm,-,N/A,,Mist,0,2013-11-16 04:50:00
7:20 AM,28.4,26.6,93,30.18,3.1,Calm,Calm,-,N/A,,Mist,0,2013-11-16 05:20:00
7:50 AM,32.0,28.4,87,30.18,-9999.0,Calm,Calm,-,N/A,,Mist,0,2013-11-16 05:50:00
8:00 AM,32,29,82,,3,Calm,Calm,,,,Mist,,2013-11-16 06:00:00
8:20 AM,37.4,33.8,87,30.18,3.7,Calm,Calm,-,N/A,,Unknown,0,2013-11-16 06:20:00
8:50 AM,39.2,32.0,75,30.18,4.3,Calm,Calm,-,N/A,,Unknown,0,2013-11-16 06:50:00
9:20 AM,42.8,33.8,70,30.18,5.6,Calm,Calm,-,N/A,,Unknown,0,2013-11-16 07:20:00
9:50 AM,44.6,33.8,66,30.18,6.2,Calm,Calm,-,N/A,,Partly Cloudy,0,2013-11-16 07:50:00
10:20 AM,46.4,35.6,66,30.15,6.2,Variable,1.2,-,N/A,,Partly Cloudy,0,2013-11-16 08:20:00
10:50 AM,48.2,35.6,62,30.15,6.2,Calm,Calm,-,N/A,,Partly Cloudy,0,2013-11-16 08:50:00
11:00 AM,49,35,46,,6,Calm,Calm,,,,Haze,,2013-11-16 09:00:00
11:20 AM,50.0,35.6,58,30.15,6.2,Variable,1.2,-,N/A,,Partly Cloudy,0,2013-11-16 09:20:00
11:50 AM,50.0,35.6,58,30.12,6.2,Variable,2.3,-,N/A,,Partly Cloudy,0,2013-11-16 09:50:00
12:20 PM,51.8,35.6,54,30.12,6.2,Variable,1.2,-,N/A,,Partly Cloudy,0,2013-11-16 10:20:00
12:50 PM,51.8,35.6,54,30.12,6.2,West,3.5,-,N/A,,Partly Cloudy,280,2013-11-16 10:50:00
1:20 PM,53.6,35.6,51,30.12,6.2,Variable,2.3,-,N/A,,Partly Cloudy,0,2013-11-16 11:20:00
1:50 PM,53.6,37.4,54,30.12,6.2,West,4.6,-,N/A,,Partly Cloudy,270,2013-11-16 11:50:00
2:00 PM,53,36,42,,6,West,4.6,,,,Haze,270,2013-11-16 12:00:00
2:20 PM,53.6,35.6,51,30.09,6.2,WSW,3.5,-,N/A,,Partly Cloudy,250,2013-11-16 12:20:00
2:50 PM,51.8,37.4,58,30.09,6.2,West,8.1,-,N/A,,Partly Cloudy,260,2013-11-16 12:50:00
3:20 PM,51.8,37.4,58,30.09,6.2,WSW,8.1,-,N/A,,Partly Cloudy,250,2013-11-16 13:20:00
3:50 PM,48.2,37.4,66,30.09,6.2,WSW,8.1,-,N/A,,Partly Cloudy,240,2013-11-16 13:50:00
4:20 PM,44.6,35.6,71,30.09,6.2,WSW,8.1,-,N/A,,Partly Cloudy,240,2013-11-16 14:20:00
4:50 PM,42.8,35.6,76,30.09,5.0,SW,6.9,-,N/A,,Unknown,230,2013-11-16 14:50:00
5:00 PM,43,35,65,,5,SW,6.9,,,,Mist,230,2013-11-16 15:00:00
5:20 PM,41.0,33.8,76,30.12,5.0,SW,4.6,-,N/A,,Unknown,220,2013-11-16 15:20:00
5:50 PM,41.0,35.6,81,30.12,4.3,SSW,1.2,-,N/A,,Unknown,200,2013-11-16 15:50:00
6:20 PM,39.2,33.8,81,30.12,3.7,Calm,Calm,-,N/A,,Unknown,0,2013-11-16 16:20:00
6:50 PM,39.2,33.8,81,30.12,3.7,Calm,Calm,-,N/A,,Unknown,0,2013-11-16 16:50:00
7:20 PM,35.6,32.0,87,30.12,3.7,Calm,Calm,-,N/A,,Unknown,0,2013-11-16 17:20:00
7:50 PM,35.6,32.0,87,30.12,3.7,Calm,Calm,-,N/A,,Unknown,0,2013-11-16 17:50:00
8:00 PM,35,32,86,,4,Calm,Calm,,,,Mist,,2013-11-16 18:00:00
8:20 PM,33.8,32.0,93,30.15,3.7,West,1.2,-,N/A,,Unknown,280,2013-11-16 18:20:00
8:50 PM,32.0,30.2,93,30.15,3.7,Calm,Calm,-,N/A,,Unknown,0,2013-11-16 18:50:00
9:20 PM,33.8,32.0,93,30.15,3.7,Calm,Calm,-,N/A,,Unknown,0,2013-11-16 19:20:00
9:50 PM,32.0,30.2,93,30.15,4.3,Calm,Calm,-,N/A,,Mist,0,2013-11-16 19:50:00
10:20 PM,32.0,30.2,93,30.15,3.7,NNE,3.5,-,N/A,,Unknown,20,2013-11-16 20:20:00
10:50 PM,28.4,26.6,93,30.15,3.7,NE,3.5,-,N/A,,Mist,40,2013-11-16 20:50:00
11:00 PM,28,27,93,,2,NE,3.5,,,,Mist,40,2013-11-16 21:00:00
11:20 PM,28.4,26.6,93,30.15,3.7,Variable,1.2,-,N/A,,Mist,0,2013-11-16 21:20:00
11:50 PM,30.2,28.4,93,30.15,3.7,Calm,Calm,-,N/A,,Mist,0,2013-11-16 21:50:00